Terminal Aerodrome Forecast
Issued by NWS

Home | Current Version | Previous Version | Text Only | Print | Product List | Glossary On
Versions: 1 2 3 4 5 6 7 8 9 10 11 12
000
FTUS46 KSTO 212300
TAFRBL
TAF
KRBL 212320Z 2200/2224 16012KT P6SM SCT150
     FM220400 16005KT P6SM SCT200
     FM222000 16010KT P6SM FEW200=

USA.gov is the U.S. government's official web portal to all federal, state and local government web resources and services.